[[{"header":{"parameterUnit":"m.s-1","parameterCategory":1,"la1":30.2991,"la2":30.254,"lo1":-89.0895,"lo2":-89.0444,"dy":0.0017,"dx":0.0017,"nx":28,"ny":28,"refTime":"2023-08-17T09:00:00:Z","depth":0,"parameterNumber":2,"parameterNumberName":"U-component_of_WINDS"},"data":[0,0,0,0,0,0,0,0,0,0,0,0,0,0,0,0,0,0,0,0,0,0,0,0,0,0,0,0,0,0,0,0,0,0,0,0,0,0,0,0,0,0,0,0,0,0,0,0,0,0,0,0,0,0,0,0,0,0,0.4521,0.4522,0,0.4636,0.4637,0.4638,0.4686,0.4686,0.4685,0.4685,0.4802,0.4805,0.4809,0,0,0,0,0,0,0,0,0,0,0,0,0,0.4341,0.4344,0.4521,0.4522,0.4524,0.4636,0.4637,0.4639,0.4686,0.4686,0.4685,0.4685,0.4801,0.4805,0.4809,0,0,0,0,0,0,0,0,0,0,0,0,0,0.4434,0.4345,0.4521,0.4561,0.4566,0.4635,0.4637,0.4639,0.4686,0.4686,0.4685,0.4685,0.48,0.4805,0.4809,0.4847,0,0,0.4825,0.4827,0,0,0,0,0,0,0,0,0.4428,0.444,0.4554,0.4558,0.4564,0.4646,0.4617,0.4709,0.4686,0.464,0.4685,0.4685,0.475,0.4759,0.4782,0.4853,0.4858,0.4825,0.4828,0.483,0.4832,0,0,0,0,0,0,0,0.4422,0.4436,0.4566,0.4555,0.4561,0.4573,0.4585,0.4634,0.4696,0.4644,0.4648,0.4661,0.4753,0.4777,0.4785,0.486,0.4825,0.4829,0.4833,0.4835,0.4967,0.4967,0,0,0,0,0,0,0.4409,0.443,0.4563,0.457,0.4494,0.4576,0.459,0.462,0.4696,0.4707,0.4661,0.4663,0.4768,0.4779,0.4789,0.4838,0.483,0.4835,0.4838,0.4966,0.4967,0.4967,0,0,0,0,0,0,0.4405,0.442,0.4558,0.4501,0.4519,0.458,0.4612,0.4622,0.4646,0.4708,0.4719,0.4674,0.4769,0.4782,0.4832,0.4843,0.4837,0.4842,0.4966,0.4966,0.4967,0.4936,0,0,0,0,0,0,0.44,0.4419,0.4434,0.4501,0.4522,0.46,0.4613,0.4625,0.4655,0.4658,0.4723,0.4734,0.4769,0.4825,0.4837,0.485,0.4846,0.4965,0.4966,0.4967,0.4937,0.4936,0.4935,0,0,0,0,0,0.4393,0.4421,0.4435,0.4451,0.4543,0.46,0.4612,0.4653,0.4655,0.4671,0.4711,0.4732,0.4839,0.4829,0.4844,0.4858,0.4964,0.4966,0.4967,0.4937,0.4936,0.4935,0,0,0,0,0,0,0.4354,0.4431,0.4447,0.4497,0.4542,0.4608,0.463,0.4651,0.4695,0.4697,0.4744,0.4759,0.4805,0.4837,0.4824,0.4898,0.4904,0.4908,0.4876,0.4876,0.4875,0.4866,0.485,0,0,0,0,0,0.4351,0.4392,0.4456,0.4495,0.4516,0.4569,0.4595,0.4623,0.4671,0.469,0.4733,0.4779,0.4823,0.4851,0.4895,0.4941,0.4956,0.4958,0.4957,0.4956,0.496,0.4986,0.4987,0.4971,0.4971,0.4971,0,0,0.4346,0.4393,0.4416,0.4488,0.4526,0.4566,0.4585,0.4627,0.4657,0.4696,0.4746,0.4779,0.4834,0.4882,0.4905,0.491,0.4967,0.4958,0.4957,0.4961,0.4987,0.4988,0.499,0.4972,0.4972,0.4972,0,0,0.4357,0.4397,0.4433,0.447,0.4527,0.4562,0.457,0.4633,0.4657,0.4708,0.4738,0.4774,0.4849,0.4887,0.4915,0.4939,0.496,0.4952,0.4948,0.4973,0.4975,0.4976,0.4984,0.4986,0.4955,0.4955,0.4954,0,0.4343,0.4406,0.4449,0.4489,0.452,0.4557,0.4593,0.4627,0.4695,0.4715,0.4719,0.4814,0.4853,0.491,0.4915,0.4937,0.4948,0.4945,0.4971,0.4973,0.4975,0.4983,0.4986,0.4953,0.4953,0.4953,0.4954,0,0.4386,0.4429,0.4451,0.4516,0.4549,0.4587,0.4635,0.4663,0.4687,0.4721,0.4772,0.4819,0.4874,0.4889,0.4913,0.4949,0.495,0.4962,0.4968,0.4974,0.4983,0.4986,0.4951,0.4952,0.4952,0.4952,0,0,0.4376,0.4464,0.4471,0.4501,0.4566,0.46,0.4639,0.4692,0.4715,0.476,0.4794,0.4856,0.4867,0.49,0.4928,0.495,0.4965,0.4959,0.4961,0.4958,0.5007,0.4998,0.5001,0.4978,0.4979,0.498,0.5002,0,0.4396,0.4469,0.4508,0.4564,0.4604,0.4639,0.4673,0.4716,0.4748,0.4786,0.4822,0.4865,0.4876,0.4896,0.4919,0.4958,0.4975,0.4957,0.501,0.5012,0.4996,0.5006,0.4996,0.5015,0.5006,0.5007,0.5007,0,0.4429,0.4474,0.4534,0.4594,0.4612,0.4642,0.4694,0.4729,0.4779,0.4801,0.4836,0.4864,0.4906,0.4908,0.4967,0.4953,0.4977,0.4999,0.5001,0.5008,0.501,0.5012,0.5022,0.5025,0.5013,0.5012,0.5012,0,0.4416,0.4491,0.4537,0.4561,0.4632,0.4653,0.4683,0.4732,0.4761,0.4805,0.4824,0.4873,0.49,0.4936,0.4976,0.4974,0.503,0.5036,0.5049,0.5048,0.506,0.5058,0.5074,0.5075,0.5075,0.5075,0.5075,0,0.4434,0.4469,0.4532,0.456,0.46,0.4644,0.4682,0.4715,0.4758,0.4793,0.4826,0.4857,0.4908,0.4945,0.4977,0.502,0.5032,0.505,0.5058,0.5047,0.5045,0.5064,0.5064,0.5075,0.5075,0.5075,0.5075,0,0.4426,0.447,0.4522,0.4584,0.4601,0.4628,0.4681,0.4709,0.4743,0.4786,0.4798,0.4851,0.4897,0.494,0.5001,0.5022,0.5066,0.5076,0.5049,0.5053,0.5064,0.5062,0.5092,0.5098,0.5094,0.5094,0.5094,0,0.4435,0.4463,0.4528,0.4554,0.4584,0.4625,0.4654,0.4698,0.4728,0.4785,0.4806,0.4854,0.4896,0.4967,0.501,0.5057,0.5069,0.5076,0.5076,0.5064,0.5069,0.5067,0.507,0.5075,0.5075,0.5075,0.5075,0,0.4446,0.4466,0.4507,0.4557,0.4591,0.4632,0.4674,0.4692,0.4744,0.4775,0.4822,0.4854,0.4916,0.4964,0.5015,0.5046,0.5069,0.5074,0.508,0.5069,0.5052,0.5061,0.5047,0.5074,0.5074,0.5074,0.5074,0.5074,0.4446,0.4473,0.4523,0.4568,0.4604,0.4642,0.4671,0.4708,0.4749,0.4803,0.4826,0.4874,0.4922,0.4993,0.5024,0.5061,0.5066,0.5074,0.5076,0.5078,0.5075,0.5046,0.5071,0.5071,0.5071,0.5071,0.5071,0,0.4459,0.4493,0.4534,0.4591,0.4626,0.4645,0.4692,0.472,0.4761,0.4804,0.4844,0.4898,0.4943,0.499,0.5038,0.5059,0.5071,0.5071,0.507,0.5076,0.5068,0.5059,0.506,0.506,0.506,0.506,0.506,0.506,0.4469,0.4515,0.454,0.4603,0.4637,0.4684,0.4709,0.4744,0.4778,0.4837,0.4876,0.4906,0.495,0.5001,0.5044,0.5056,0.5073,0.5069,0.5085,0.5076,0.5077,0.5077,0.5069,0.5072,0.5072,0.509,0.509,0.509]},{"header":{"parameterUnit":"m.s-1","parameterCategory":1,"la1":30.2991,"la2":30.254,"lo1":-89.0895,"lo2":-89.0444,"dy":0.0017,"dx":0.0017,"nx":28,"ny":28,"refTime":"2023-08-17T09:00:00:Z","depth":0,"parameterNumber":3,"parameterNumberName":"V-component_of_WINDS"},"data":[0,0,0,0,0,0,0,0,0,0,0,0,0,0,0,0,0,0,0,0,0,0,0,0,0,0,0,0,0,0,0,0,0,0,0,0,0,0,0,0,0,0,0,0,0,0,0,0,0,0,0,0,0,0,0,0,0,0,5.218,5.2179,0,5.2086,5.2085,5.2084,5.197,5.1969,5.1967,5.1965,5.1865,5.1864,5.1863,0,0,0,0,0,0,0,0,0,0,0,0,0,5.226,5.2259,5.218,5.2179,5.2178,5.2086,5.2085,5.2083,5.1971,5.1968,5.1966,5.1964,5.1866,5.1864,5.1863,0,0,0,0,0,0,0,0,0,0,0,0,0,5.2201,5.2259,5.218,5.2111,5.2103,5.2086,5.2085,5.2083,5.1971,5.1968,5.1966,5.1963,5.1866,5.1864,5.1863,5.1906,0,0,5.1858,5.1857,0,0,0,0,0,0,0,0,5.2205,5.2198,5.2122,5.2115,5.2107,5.2037,5.2076,5.2023,5.1972,5.2021,5.1965,5.1962,5.1924,5.1918,5.1906,5.1901,5.1897,5.1858,5.1857,5.1856,5.1856,0,0,0,0,0,0,0,5.2209,5.2202,5.2143,5.2121,5.2112,5.2083,5.2072,5.2065,5.1988,5.2017,5.2008,5.1999,5.192,5.1908,5.1903,5.1895,5.1858,5.1857,5.1856,5.1855,5.192,5.1922,0,0,0,0,0,0,5.2224,5.2206,5.2146,5.214,5.2151,5.2084,5.2071,5.2062,5.1988,5.1974,5.2001,5.1994,5.1911,5.1904,5.1899,5.1943,5.1856,5.1855,5.1854,5.1917,5.192,5.1923,0,0,0,0,0,0,5.2226,5.222,5.2149,5.2171,5.2159,5.2085,5.2076,5.2062,5.2049,5.1977,5.1962,5.2003,5.1909,5.1901,5.1905,5.1938,5.1854,5.1853,5.1914,5.1918,5.1922,5.2033,0,0,0,0,0,0,5.2229,5.2221,5.2237,5.2172,5.2159,5.2159,5.2078,5.2062,5.2047,5.2037,5.1974,5.1961,5.1906,5.1908,5.1903,5.1934,5.1852,5.191,5.1916,5.192,5.2026,5.204,5.2052,0,0,0,0,0,5.2232,5.2272,5.2239,5.2232,5.2178,5.2161,5.2153,5.209,5.2051,5.2066,5.2019,5.1963,5.1935,5.1909,5.1903,5.1934,5.1908,5.1914,5.192,5.202,5.2037,5.2052,0,0,0,0,0,0,5.2342,5.2262,5.2224,5.2244,5.221,5.2142,5.2159,5.211,5.2086,5.2077,5.1999,5.1986,5.1999,5.1967,5.1939,5.1971,5.1913,5.1919,5.1991,5.2007,5.202,5.2027,5.185,0,0,0,0,0,5.2369,5.2363,5.2293,5.2317,5.2302,5.2234,5.2224,5.2178,5.2139,5.2124,5.2077,5.2041,5.2024,5.2014,5.1994,5.2021,5.2005,5.2039,5.2052,5.2064,5.2068,5.2079,5.2093,5.1943,5.1942,5.1942,0,0,5.2423,5.2379,5.238,5.2338,5.2306,5.23,5.2222,5.222,5.2214,5.2123,5.2124,5.2089,5.2043,5.2059,5.2063,5.2032,5.2107,5.2071,5.2081,5.2079,5.2087,5.2101,5.2114,5.1947,5.1946,5.1945,0,0,5.252,5.2487,5.2503,5.2473,5.2426,5.2381,5.2385,5.2324,5.2297,5.2297,5.2228,5.222,5.2193,5.2162,5.2143,5.223,5.2177,5.2225,5.2294,5.2305,5.2317,5.2327,5.2357,5.2368,5.223,5.2231,5.2231,0,5.2594,5.2583,5.2517,5.2519,5.2502,5.2421,5.2436,5.241,5.2359,5.2348,5.2315,5.2278,5.2242,5.2249,5.227,5.2257,5.2258,5.2231,5.2321,5.233,5.2339,5.2366,5.2378,5.2237,5.2236,5.2236,5.2235,0,5.2676,5.267,5.2688,5.2642,5.2627,5.2636,5.257,5.2563,5.2519,5.2477,5.2477,5.2431,5.24,5.2398,5.2355,5.2399,5.2381,5.2336,5.2276,5.236,5.2385,5.2395,5.2246,5.2243,5.2242,5.224,0,0,5.2838,5.2756,5.2763,5.2741,5.2684,5.2677,5.2682,5.2653,5.2648,5.2616,5.2617,5.2595,5.2553,5.2532,5.2484,5.2495,5.2564,5.2447,5.2445,5.247,5.2608,5.2642,5.2656,5.253,5.2532,5.2533,5.2612,0,5.2923,5.2927,5.2868,5.2887,5.288,5.2803,5.2807,5.2772,5.2733,5.272,5.2676,5.2662,5.2608,5.2594,5.2601,5.2555,5.2591,5.2548,5.2528,5.2528,5.2541,5.2668,5.2704,5.2781,5.2621,5.2623,5.2624,0,5.3023,5.2997,5.3017,5.2959,5.2954,5.2958,5.2926,5.2916,5.2874,5.2845,5.2822,5.2768,5.2767,5.2712,5.2708,5.2681,5.2669,5.2645,5.2646,5.2641,5.2581,5.2665,5.2804,5.2815,5.2638,5.2637,5.2636,0,5.3138,5.3109,5.3116,5.31,5.3032,5.3037,5.3009,5.2965,5.2951,5.2923,5.2913,5.2885,5.287,5.2849,5.2788,5.2754,5.2792,5.2732,5.2766,5.2768,5.2776,5.2776,5.2914,5.2771,5.2771,5.2771,5.2771,0,5.3239,5.3253,5.3167,5.3172,5.3185,5.3117,5.3132,5.3096,5.3058,5.3053,5.2985,5.2982,5.2903,5.289,5.2843,5.2847,5.284,5.2816,5.2803,5.2821,5.2824,5.2811,5.2804,5.2774,5.2773,5.2773,5.2772,0,5.3369,5.3312,5.3315,5.3251,5.3236,5.3249,5.3193,5.3194,5.3151,5.3147,5.3141,5.3073,5.3055,5.2993,5.296,5.2928,5.2946,5.2922,5.2961,5.2952,5.2989,5.2986,5.3122,5.3136,5.2987,5.2988,5.299,0,5.3436,5.3446,5.3384,5.3376,5.3352,5.3341,5.3326,5.3259,5.3247,5.32,5.3207,5.3184,5.3161,5.3136,5.3083,5.3056,5.303,5.308,5.3025,5.3044,5.3029,5.3029,5.3029,5.3091,5.3093,5.3095,5.3096,0,5.3562,5.3533,5.3516,5.3489,5.3474,5.345,5.3421,5.3418,5.3343,5.3333,5.3314,5.3297,5.3263,5.324,5.3206,5.3175,5.3123,5.3114,5.312,5.3138,5.316,5.3147,5.2991,5.311,5.3109,5.3108,5.3107,5.3107,5.3661,5.3666,5.3623,5.3606,5.3578,5.3553,5.355,5.3508,5.3491,5.3459,5.342,5.3406,5.3363,5.3311,5.3285,5.3272,5.3243,5.3253,5.3255,5.3258,5.3267,5.3164,5.3265,5.3265,5.3264,5.3264,5.3264,0,5.3782,5.3751,5.3736,5.3698,5.3685,5.3639,5.3604,5.3596,5.3585,5.355,5.353,5.3508,5.3486,5.3432,5.3404,5.3404,5.3379,5.3399,5.3397,5.3391,5.3294,5.3291,5.3419,5.3419,5.3419,5.3419,5.3419,5.3419,5.3843,5.3849,5.3815,5.3806,5.3773,5.376,5.3745,5.3721,5.3692,5.3672,5.3653,5.3619,5.3575,5.3544,5.3521,5.3505,5.3498,5.3525,5.3502,5.3412,5.3398,5.3383,5.338,5.3524,5.3525,5.3599,5.3599,5.36]}]]